User: anonymous   Login
Location: Unspecified
(43.3830°N, 0.0000°E)
Time: 18:35:09
(UTC+00:00)
Language:

A-11 Canister half - Orbit

View from above orbital plane
View from above orbital plane
View from above satellite
View from above satellite

Ground track
Ground track

The orbit data is extracted from the following two-line orbital elements,

1    51U 60009C   20219.92028431 -.00000121 +00000-0 -35014-3 0  9996
2    51 047.2107 191.2882 0108799 312.8428 046.3259 12.18276515670248
Epoch (UTC): 06 August 2020 22:05:12
Eccentricity: 0.0108799
inclination: 47.2107°
perigee height: 1513 km
apogee height: 1687 km
right ascension of ascending node: 191.2882°
argument of perigee: 312.8428°
revolutions per day: 12.18276515
mean anomaly at epoch: 46.3259°
orbit number at epoch: 67024

The dashed part of the orbit path shows where the satellite is in the earth's shadow,  

DLR